WGA891 KORD-KELP

Flight info

Callsign WGA891
Flight time N/A
Altitude 28000
Route PEKUE PIGGG QUANE CARET ROEZZ MCI ICT PNH CME SAMMR3
Aircraft MD11/H-SDE1E2E3FGHIJ2J3J4J5M1RWXY/LB1D1

Departure

Time 2026-04-30 21:46
Airport Chicago O'Hare International Airport (KORD)

Arrival

Time N/A
Airport El Paso International Airport (KELP)
Time Latitude Longitude Altitude Speed Heading
2026-04-30 21:12 41.96136 -87.91330 674 ft 0 kts 180°
2026-04-30 21:28 41.96148 -87.91330 673 ft 4 kts 176°
2026-04-30 21:28 41.96198 -87.91348 674 ft 4 kts 142°
2026-04-30 21:29 41.96215 -87.91371 675 ft 4 kts 109°
2026-04-30 21:29 41.96218 -87.91437 674 ft 0 kts 90°
2026-04-30 21:35 41.96218 -87.91431 674 ft 2 kts 89°
2026-04-30 21:35 41.96219 -87.91383 674 ft 8 kts 89°
2026-04-30 21:35 41.96220 -87.91285 676 ft 13 kts 90°
2026-04-30 21:36 41.96219 -87.91151 676 ft 13 kts 91°
2026-04-30 21:36 41.96217 -87.91036 676 ft 11 kts 91°
2026-04-30 21:37 41.96218 -87.90663 676 ft 12 kts 89°
2026-04-30 21:37 41.96237 -87.90563 676 ft 11 kts 65°
2026-04-30 21:37 41.96288 -87.90531 676 ft 8 kts 353°
2026-04-30 21:37 41.96338 -87.90564 675 ft 9 kts 336°
2026-04-30 21:38 41.96383 -87.90537 676 ft 8 kts 40°
2026-04-30 21:38 41.96445 -87.90495 677 ft 11 kts
2026-04-30 21:38 41.96524 -87.90496 677 ft 11 kts 360°
2026-04-30 21:38 41.96612 -87.90496 677 ft 13 kts
2026-04-30 21:39 41.96710 -87.90505 676 ft 13 kts 341°
2026-04-30 21:39 41.96737 -87.90582 676 ft 12 kts 278°
2026-04-30 21:39 41.96737 -87.90720 676 ft 18 kts 270°
2026-04-30 21:39 41.96736 -87.90878 676 ft 16 kts 270°
2026-04-30 21:40 41.96736 -87.91018 676 ft 15 kts 270°
2026-04-30 21:40 41.96737 -87.91212 676 ft 25 kts 270°
2026-04-30 21:40 41.96738 -87.91439 677 ft 24 kts 269°
2026-04-30 21:40 41.96735 -87.91663 676 ft 23 kts 270°
2026-04-30 21:41 41.96737 -87.91870 677 ft 21 kts 271°
2026-04-30 21:41 41.96731 -87.92058 676 ft 19 kts 268°
2026-04-30 21:41 41.96734 -87.92225 676 ft 17 kts 271°
2026-04-30 21:41 41.96735 -87.92385 676 ft 19 kts 270°
2026-04-30 21:42 41.96736 -87.92552 676 ft 17 kts 270°
2026-04-30 21:42 41.96737 -87.92700 676 ft 15 kts 270°
2026-04-30 21:42 41.96737 -87.92826 676 ft 12 kts 270°
2026-04-30 21:42 41.96736 -87.92952 676 ft 15 kts 270°
2026-04-30 21:43 41.96735 -87.93044 676 ft 14 kts 270°
2026-04-30 21:43 41.96778 -87.93129 676 ft 10 kts 336°
2026-04-30 21:43 41.96839 -87.93135 677 ft 9 kts 360°
2026-04-30 21:43 41.96884 -87.93115 678 ft 5 kts 52°
2026-04-30 21:44 41.96900 -87.93035 678 ft 0 kts 88°
2026-04-30 21:44 41.96900 -87.93034 678 ft 1 kts 88°
2026-04-30 21:45 41.96901 -87.92938 677 ft 27 kts 89°
2026-04-30 21:45 41.96902 -87.92338 674 ft 102 kts 90°
2026-04-30 21:45 41.96907 -87.91058 680 ft 167 kts 90°
2026-04-30 21:45 41.96894 -87.89398 1100 ft 183 kts 92°
2026-04-30 21:46 41.96825 -87.87685 1997 ft 183 kts 94°
2026-04-30 21:46 41.96862 -87.85922 2589 ft 196 kts 79°
2026-04-30 21:46 41.97456 -87.84223 3016 ft 208 kts 47°
2026-04-30 21:46 41.98641 -87.83134 3553 ft 209 kts 15°
2026-04-30 21:47 42.00064 -87.82975 4102 ft 206 kts 347°
2026-04-30 21:47 42.01374 -87.83703 4616 ft 205 kts 319°
2026-04-30 21:47 42.02267 -87.85146 5296 ft 200 kts 291°
2026-04-30 21:47 42.02504 -87.86957 5944 ft 199 kts 263°
2026-04-30 21:48 42.02238 -87.88758 6679 ft 194 kts 257°
2026-04-30 21:48 42.01927 -87.90506 7402 ft 191 kts 255°
2026-04-30 21:48 42.01520 -87.92301 7688 ft 212 kts 252°
2026-04-30 21:48 42.01032 -87.94267 7853 ft 230 kts 252°
2026-04-30 21:49 42.00506 -87.96386 7993 ft 248 kts 252°
2026-04-30 21:49 41.99946 -87.98667 8183 ft 270 kts 252°
2026-04-30 21:49 41.99352 -88.01103 8961 ft 273 kts 252°
2026-04-30 21:49 41.98767 -88.03508 9772 ft 274 kts 252°
2026-04-30 21:50 41.98198 -88.05848 10897 ft 261 kts 253°
2026-04-30 21:50 41.97637 -88.08162 11641 ft 261 kts 254°
2026-04-30 21:50 41.97070 -88.10505 12210 ft 270 kts 254°
2026-04-30 21:50 41.96468 -88.13009 12329 ft 293 kts 254°
2026-04-30 21:51 41.95817 -88.15718 12482 ft 316 kts 254°
2026-04-30 21:51 41.95144 -88.18513 12671 ft 334 kts 254°
2026-04-30 21:51 41.94399 -88.21591 13417 ft 336 kts 254°
2026-04-30 21:51 41.93672 -88.24588 14104 ft 338 kts 254°
2026-04-30 21:52 41.92940 -88.27598 14751 ft 340 kts 254°
2026-04-30 21:52 41.92204 -88.30625 15319 ft 342 kts 255°
2026-04-30 21:52 41.91461 -88.33673 15958 ft 343 kts 255°
2026-04-30 21:52 41.90717 -88.36720 16549 ft 345 kts 255°
2026-04-30 21:53 41.89967 -88.39791 17144 ft 347 kts 255°
2026-04-30 21:53 41.89211 -88.42881 17702 ft 350 kts 255°
2026-04-30 21:53 41.88451 -88.45980 18258 ft 352 kts 255°
2026-04-30 21:53 41.87683 -88.49110 18739 ft 354 kts 255°
2026-04-30 21:54 41.86910 -88.52258 19185 ft 357 kts 255°
2026-04-30 21:54 41.86130 -88.55428 19630 ft 359 kts 255°
2026-04-30 21:54 41.85344 -88.58620 20071 ft 362 kts 255°
2026-04-30 21:54 41.84561 -88.61793 20507 ft 364 kts 255°
2026-04-30 21:55 41.83761 -88.65029 20939 ft 367 kts 255°
2026-04-30 21:55 41.82953 -88.68297 21365 ft 370 kts 255°
2026-04-30 21:55 41.82141 -88.71574 21798 ft 373 kts 255°
2026-04-30 21:55 41.81319 -88.74889 22247 ft 375 kts 255°
2026-04-30 21:56 41.80491 -88.78219 22684 ft 378 kts 255°
2026-04-30 21:56 41.79710 -88.81599 23132 ft 379 kts 259°
2026-04-30 21:56 41.79134 -88.85055 23566 ft 381 kts 262°
2026-04-30 21:56 41.78664 -88.88549 23984 ft 382 kts 263°
2026-04-30 21:57 41.78231 -88.92054 24466 ft 382 kts 264°
2026-04-30 21:57 41.77804 -88.95574 24954 ft 383 kts 264°
2026-04-30 21:57 41.77373 -88.99104 25439 ft 383 kts 264°
2026-04-30 21:57 41.76938 -89.02621 25913 ft 383 kts 263°
2026-04-30 21:58 41.76502 -89.06104 26408 ft 384 kts 263°
2026-04-30 21:58 41.76058 -89.09627 26835 ft 386 kts 263°
2026-04-30 21:58 41.75600 -89.13177 27228 ft 386 kts 262°
2026-04-30 21:58 41.74900 -89.16662 27624 ft 391 kts 255°
2026-04-30 21:59 41.73847 -89.20042 27955 ft 397 kts 250°
2026-04-30 21:59 41.72639 -89.23383 28022 ft 403 kts 249°
2026-04-30 22:00 41.68729 -89.33735 28041 ft 422 kts 249°
2026-04-30 22:00 41.64798 -89.44312 28045 ft 423 kts 249°
2026-04-30 22:01 41.62191 -89.51373 28044 ft 423 kts 249°
2026-04-30 22:01 41.59583 -89.58425 28045 ft 423 kts 249°
2026-04-30 22:02 41.56992 -89.65415 28045 ft 423 kts 249°
2026-04-30 22:02 41.54373 -89.72456 28037 ft 424 kts 249°
2026-04-30 22:03 41.51594 -89.79423 28043 ft 425 kts 247°
2026-04-30 22:03 41.48733 -89.86326 28041 ft 425 kts 247°
2026-04-30 22:04 41.45874 -89.93228 28038 ft 425 kts 247°
2026-04-30 22:05 41.41593 -90.03581 28036 ft 424 kts 247°
2026-04-30 22:05 41.38746 -90.10455 28033 ft 423 kts 247°
2026-04-30 22:06 41.35914 -90.17278 28028 ft 424 kts 247°
2026-04-30 22:06 41.31622 -90.27588 28023 ft 423 kts 247°
2026-04-30 22:07 41.28764 -90.34432 28023 ft 423 kts 247°
2026-04-30 22:07 41.25905 -90.41262 28021 ft 421 kts 247°
2026-04-30 22:08 41.23051 -90.48064 28024 ft 421 kts 246°
2026-04-30 22:08 41.20218 -90.54805 28024 ft 421 kts 246°
2026-04-30 22:09 41.17362 -90.61582 28035 ft 421 kts 246°
2026-04-30 22:09 41.14502 -90.68357 28033 ft 421 kts 246°
2026-04-30 22:10 41.11618 -90.75107 28029 ft 421 kts 246°
2026-04-30 22:10 41.08724 -90.81868 28026 ft 421 kts 246°
2026-04-30 22:11 41.04393 -90.92024 28031 ft 422 kts 246°
2026-04-30 22:12 41.01501 -90.98802 28026 ft 422 kts 246°
2026-04-30 22:12 40.98613 -91.05558 28024 ft 422 kts 246°
2026-04-30 22:13 40.95740 -91.12263 28022 ft 422 kts 246°
2026-04-30 22:13 40.92838 -91.19018 28019 ft 422 kts 246°
2026-04-30 22:14 40.89932 -91.25769 27985 ft 423 kts 246°
2026-04-30 22:14 40.87013 -91.32536 28032 ft 424 kts 246°
2026-04-30 22:15 40.84082 -91.39312 28031 ft 424 kts 246°
2026-04-30 22:15 40.81166 -91.46039 28030 ft 424 kts 246°
2026-04-30 22:16 40.78229 -91.52801 28026 ft 424 kts 246°
2026-04-30 22:17 40.73188 -91.66694 28028 ft 419 kts 251°
2026-04-30 22:17 40.69716 -91.77266 28032 ft 419 kts 251°
2026-04-30 22:18 40.66206 -91.87807 28036 ft 419 kts 251°
2026-04-30 22:19 40.62681 -91.98326 28034 ft 418 kts 251°
2026-04-30 22:20 40.59162 -92.08792 28041 ft 418 kts 251°
2026-04-30 22:20 40.55618 -92.19291 28048 ft 418 kts 250°
2026-04-30 22:21 40.53268 -92.26230 28046 ft 418 kts 250°
2026-04-30 22:21 40.50882 -92.33261 28045 ft 419 kts 250°
2026-04-30 22:22 40.48516 -92.40213 28052 ft 419 kts 250°
2026-04-30 22:22 40.46130 -92.47207 28052 ft 419 kts 250°
2026-04-30 22:23 40.43744 -92.54182 28045 ft 420 kts 250°
2026-04-30 22:23 40.41322 -92.61164 28056 ft 420 kts 250°
2026-04-30 22:24 40.38835 -92.68112 28039 ft 423 kts 246°
2026-04-30 22:24 40.35677 -92.74666 28058 ft 427 kts 241°
2026-04-30 22:25 40.32303 -92.81014 28055 ft 426 kts 240°
2026-04-30 22:25 40.28927 -92.87389 28055 ft 426 kts 241°
2026-04-30 22:26 40.23891 -92.96992 28061 ft 426 kts 241°
2026-04-30 22:27 40.20540 -93.03388 28043 ft 426 kts 241°
2026-04-30 22:27 40.15506 -93.12969 28063 ft 426 kts 241°
2026-04-30 22:28 40.10468 -93.22527 28061 ft 426 kts 241°
2026-04-30 22:29 40.03755 -93.35217 28057 ft 426 kts 241°
2026-04-30 22:31 39.91965 -93.57378 28061 ft 423 kts 240°
2026-04-30 22:32 39.84079 -93.72016 28062 ft 424 kts 240°
2026-04-30 22:33 39.75630 -93.87727 28057 ft 424 kts 240°
2026-04-30 22:35 39.67196 -94.03334 28058 ft 421 kts 241°
2026-04-30 22:36 39.58791 -94.18815 28062 ft 421 kts 241°
2026-04-30 22:37 39.52048 -94.31179 28064 ft 420 kts 240°
2026-04-30 22:38 39.45330 -94.43447 28070 ft 417 kts 241°
2026-04-30 22:39 39.40274 -94.52590 28069 ft 417 kts 240°
2026-04-30 22:40 39.30156 -94.70887 28062 ft 417 kts 240°
2026-04-30 22:41 39.22044 -94.86300 28056 ft 413 kts 242°
2026-04-30 22:43 39.12476 -95.04712 28080 ft 413 kts 242°
2026-04-30 22:44 39.06062 -95.16977 28073 ft 413 kts 242°
2026-04-30 22:45 38.96422 -95.35326 28069 ft 411 kts 242°
2026-04-30 22:47 38.86814 -95.53513 28080 ft 411 kts 242°
2026-04-30 22:48 38.80366 -95.65618 28075 ft 410 kts 242°
2026-04-30 22:49 38.70684 -95.83701 28091 ft 408 kts 242°
2026-04-30 22:51 38.61060 -96.01649 28104 ft 408 kts 242°
2026-04-30 22:52 38.56250 -96.10579 28103 ft 408 kts 242°
2026-04-30 22:53 38.49789 -96.22537 28097 ft 408 kts 242°
2026-04-30 22:53 38.44959 -96.31448 28096 ft 409 kts 242°
2026-04-30 22:55 38.36861 -96.46330 28095 ft 408 kts 242°
2026-04-30 22:56 38.30329 -96.58209 28114 ft 409 kts 241°
2026-04-30 22:57 38.22198 -96.73008 28118 ft 409 kts 242°
2026-04-30 22:58 38.15665 -96.84870 28105 ft 409 kts 241°
2026-04-30 22:59 38.05838 -97.02630 28115 ft 409 kts 241°